Latest Weather Observations for Casey*

IDT60801

Issued at 11:31 pm EST Saturday 9 May 2026 (issued every 10 minutes, with the page automatically refreshed every 10 minutes)

About weather observations | Map of weather stations | Latest weather observations for ANT | Other Formats
Station Details ID: 300017 Name: CASEY Lat: -66.28 Lon: 110.52 Height: 40.0 m
Data from the previous 72 hours. | See also: Recent months at Casey*
Date/Time
EST
Temp
°C
App
Temp
°C
Dew
Point
°C
Rel
Hum
%
Delta-T
°C
Wind Press
QNH
hPa
Press
MSL
hPa
Rain since
9am
mm
Dir  Spd
km/h
Gust
km/h
Spd
kts
Gust
kts
09/11:30pm -8.7 -14.5 -14.8 61 - S 13 28 7 15 983.6 984.1 -
09/11:00pm -9.8 -15.3 -16.1 60 - SSE 11 19 6 10 984.9 985.4 -
09/10:30pm -11.0 -16.9 -17.0 61 - SE 13 19 7 10 986.0 986.5 -
09/10:00pm -14.3 -21.6 -18.9 68 - S 20 24 11 13 987.0 987.5 -
09/09:30pm -13.9 -21.2 -18.5 68 - SSE 20 26 11 14 988.4 988.9 -
09/09:00pm -16.0 -23.2 -19.2 76 - S 19 20 10 11 989.7 990.2 -
09/08:30pm -16.0 -23.3 -18.9 78 - S 20 24 11 13 990.7 991.2 -
09/08:00pm -17.0 -24.7 -18.8 86 - S 22 26 12 14 991.7 992.2 -
09/07:30pm -17.3 -24.5 -19.8 81 - S 19 20 10 11 992.8 993.3 -
09/07:04pm -18.0 -24.1 -20.4 81 - SE 13 13 7 7 993.8 994.3 -
09/07:00pm -17.9 -24.0 -20.2 82 - SE 13 15 7 8 993.8 994.3 -
09/06:30pm -17.0 -21.9 -19.5 81 - SE 7 9 4 5 995.0 995.5 -
09/06:00pm -16.6 -21.3 -19.4 79 - SE 6 7 3 4 995.6 996.1 -
09/05:30pm -16.8 -22.1 -19.6 79 - SE 9 11 5 6 995.8 996.3 -
09/05:00pm -15.8 -21.0 -18.0 83 - SE 9 11 5 6 996.5 997.0 -
09/04:30pm -15.5 -20.7 -18.0 81 - NE 9 11 5 6 996.7 997.2 -
09/04:00pm -14.6 -19.4 -17.1 81 - NE 7 9 4 5 997.0 997.6 -
09/03:30pm -14.4 -19.2 -16.8 82 - NE 7 9 4 5 997.1 997.7 -
09/03:00pm -14.5 -19.7 -16.7 83 - NE 9 11 5 6 997.6 998.2 -
09/02:30pm -14.6 -19.4 -16.8 83 - NE 7 7 4 4 997.9 998.5 -
09/02:00pm -14.8 -19.6 -16.9 84 - NE 7 7 4 4 998.1 998.7 -
09/01:30pm -14.8 -19.6 -17.0 83 - NE 7 7 4 4 998.4 999.0 -
09/01:00pm -14.8 -19.6 -17.0 83 - NE 7 7 4 4 998.6 999.2 -
09/12:30pm -14.9 -19.7 -17.0 84 - NE 7 7 4 4 998.8 999.4 -
09/12:13pm -15.0 -19.6 -17.1 84 - NE 6 7 3 4 998.9 999.5 -
09/12:10pm -15.0 -19.6 -17.1 84 - NE 6 7 3 4 998.8 999.4 -
09/12:00pm -15.0 -19.6 -17.1 84 - NE 6 7 3 4 998.8 999.4 -
09/11:30am -14.9 -19.7 -17.0 84 - NE 7 7 4 4 999.0 999.6 -
09/11:00am -14.6 -19.4 -16.7 84 - NE 7 9 4 5 999.0 999.6 -
09/10:30am -14.5 -19.3 -16.6 84 - NE 7 9 4 5 998.9 999.5 -
09/10:00am -14.3 -18.9 -16.3 85 - NE 6 7 3 4 998.7 999.3 -
09/09:30am -14.0 -17.4 -16.0 85 - CALM 0 0 0 0 998.2 998.8 -
09/09:00am -13.7 -17.1 -15.7 85 - CALM 0 0 0 0 998.7 999.3 -
09/08:30am -13.8 -17.2 -15.8 85 - CALM 0 0 0 0 998.3 998.9 -
09/08:00am -13.5 -16.9 -15.5 85 - CALM 0 0 0 0 998.3 998.9 -
09/07:55am -13.5 -16.9 -15.5 85 - CALM 0 0 0 0 998.3 998.9 -
09/07:30am -13.8 -17.2 -15.8 85 - CALM 0 0 0 0 997.8 998.4 -
09/07:11am -13.9 -17.3 -15.9 85 - CALM 0 0 0 0 997.8 998.4 -
09/07:00am -13.9 -17.3 -16.0 84 - CALM 0 0 0 0 997.8 998.4 -
09/06:30am -13.7 -17.1 -15.7 85 - CALM 0 0 0 0 997.3 997.9 -
09/06:00am -13.9 -17.3 -15.9 85 - CALM 0 4 0 2 997.6 998.2 -
09/05:41am -14.0 -17.4 -16.1 84 - CALM 0 0 0 0 997.4 998.0 -
09/05:30am -13.9 -17.3 -16.0 84 - CALM 0 0 0 0 997.2 997.8 -
09/05:00am -14.2 -18.8 -16.4 83 - NE 6 7 3 4 996.8 997.3 -
09/04:51am -14.1 -18.9 -16.5 82 - NE 7 7 4 4 996.6 997.1 -
09/04:30am -14.2 -19.3 -16.4 83 - NE 9 11 5 6 996.5 997.0 -
09/04:21am -14.3 -19.5 -16.5 83 - NE 9 9 5 5 996.5 997.0 -
09/04:00am -14.2 -19.7 -16.3 84 - NE 11 13 6 7 996.2 996.7 -
09/03:30am -14.2 -19.3 -16.3 84 - NE 9 11 5 6 996.1 996.6 -
09/03:14am -14.3 -19.5 -16.5 83 - NE 9 11 5 6 995.7 996.2 -
09/03:00am -14.3 -19.5 -16.7 82 - NE 9 13 5 7 995.5 996.0 -
09/02:50am -14.3 -19.1 -16.7 82 - NE 7 7 4 4 995.6 996.1 -
09/02:30am -14.5 -18.0 -17.2 80 - CALM 0 0 0 0 995.4 995.9 -
09/02:06am -14.6 -18.1 -17.4 79 - CALM 0 0 0 0 995.3 995.8 -
09/02:00am -14.7 -18.2 -17.7 78 - CALM 0 0 0 0 995.3 995.8 -
09/01:33am -14.8 -19.7 -18.7 72 - NE 7 9 4 5 995.0 995.5 -
09/01:30am -14.9 -19.8 -18.8 72 - NE 7 9 4 5 994.9 995.4 -
09/01:29am -15.0 -19.9 -19.1 71 - NE 7 9 4 5 994.9 995.4 -
09/01:00am -15.0 -19.7 -19.1 71 - NE 6 9 3 5 994.5 995.0 -
09/12:30am -15.4 -20.7 -19.0 74 - NE 9 11 5 6 994.3 994.8 -
09/12:00am -15.2 -21.2 -19.1 72 - ENE 13 15 7 8 994.2 994.7 -
 
Date/Time
EST
Temp
°C
App
Temp
°C
Dew
Point
°C
Rel
Hum
%
Delta-T
°C
Wind Press
QNH
hPa
Press
MSL
hPa
Rain since
9am
mm
Dir  Spd
km/h
Gust
km/h
Spd
kts
Gust
kts
08/11:30pm -15.4 -21.1 -19.8 69 - ENE 11 13 6 7 994.2 994.7 -
08/11:00pm -15.4 -21.1 -20.6 64 - ENE 11 13 6 7 993.9 994.4 -
08/10:30pm -16.0 -21.0 -21.6 62 - E 7 11 4 6 993.8 994.3 -
08/10:00pm -16.1 -21.4 -21.0 66 - E 9 9 5 5 993.6 994.1 -
08/09:30pm -17.1 -22.4 -21.2 70 - E 9 13 5 7 993.4 993.9 -
08/09:00pm -17.2 -24.5 -22.2 65 - E 19 20 10 11 992.9 993.4 -
08/08:30pm -17.7 -23.1 -23.7 59 - E 9 11 5 6 992.8 993.3 -
08/08:00pm -18.2 -24.0 -22.8 67 - E 11 13 6 7 992.9 993.4 -
08/07:30pm -17.8 -22.8 -24.4 56 - E 7 9 4 5 992.5 993.0 -
08/07:00pm -16.9 -21.9 -24.4 52 - E 7 9 4 5 992.0 992.5 -
08/06:30pm -16.7 -21.7 -21.9 64 - E 7 9 4 5 992.0 992.5 -
08/06:00pm -16.3 -21.3 -21.9 62 - E 7 9 4 5 991.7 992.2 -
08/05:30pm -16.1 -19.7 -21.5 63 - CALM 0 0 0 0 991.6 992.1 -
08/05:00pm -15.7 -20.1 -21.5 61 - E 4 9 2 5 991.3 991.8 -
08/04:30pm -16.4 -21.7 -21.2 66 - E 9 11 5 6 990.9 991.4 -
08/04:00pm -16.4 -22.5 -22.1 61 - E 13 17 7 9 990.8 991.3 -
08/03:30pm -15.2 -21.3 -19.9 67 - ENE 13 15 7 8 990.7 991.2 -
08/03:00pm -14.8 -21.2 -19.2 69 - ENE 15 19 8 10 990.5 991.0 -
08/02:30pm -15.3 -22.7 -19.8 68 - ENE 20 22 11 12 990.3 990.8 -
08/02:00pm -13.8 -20.6 -18.8 66 - NE 17 20 9 11 990.2 990.7 -
08/01:30pm -14.3 -19.6 -19.8 63 - S 9 15 5 8 990.1 990.6 -
08/01:00pm -15.1 -20.4 -21.3 59 - S 9 11 5 6 989.8 990.3 -
08/12:30pm -16.1 -21.0 -20.4 69 - S 7 9 4 5 989.2 989.7 -
08/12:00pm -17.6 -23.3 -21.6 71 - S 11 13 6 7 988.6 989.1 -
08/11:30am -17.5 -22.3 -21.0 74 - S 6 9 3 5 988.4 988.9 -
08/11:00am -15.6 -20.5 -20.0 69 - S 7 9 4 5 988.1 988.6 -
08/10:30am -14.6 -19.8 -18.2 74 - S 9 9 5 5 988.0 988.5 -
08/10:00am -15.0 -20.3 -19.6 68 - S 9 11 5 6 987.7 988.2 -
08/09:30am -14.9 -20.2 -19.5 68 - S 9 11 5 6 987.5 988.0 -
08/09:00am -14.8 -20.1 -19.4 68 - S 9 9 5 5 987.1 987.6 -
08/08:30am -15.1 -20.4 -19.5 69 - S 9 11 5 6 986.9 987.4 -
08/08:00am -15.4 -20.3 -20.3 66 - S 7 7 4 4 986.6 987.1 -
08/07:30am -16.9 -21.9 -21.2 69 - S 7 9 4 5 986.5 987.0 -
08/07:00am -14.5 -20.2 -20.0 63 - S 11 13 6 7 986.0 986.5 -
08/06:30am -15.1 -20.4 -20.4 64 - S 9 11 5 6 985.8 986.3 -
08/06:00am -15.0 -20.3 -20.4 63 - S 9 9 5 5 985.5 986.0 -
08/05:30am -15.1 -18.7 -20.2 65 - CALM 0 0 0 0 985.2 985.7 -
08/05:00am -15.6 -19.2 -21.0 63 - CALM 0 0 0 0 985.1 985.6 -
08/04:30am -14.6 -18.2 -21.0 58 - CALM 0 2 0 1 984.9 985.4 -
08/04:00am -14.1 -17.7 -20.5 58 - CALM 0 0 0 0 984.8 985.3 -
08/03:30am -14.2 -19.1 -20.2 60 - S 7 9 4 5 984.6 985.1 -
08/03:00am -14.4 -18.0 -19.9 63 - CALM 0 0 0 0 984.5 985.0 -
08/02:30am -14.5 -19.4 -19.1 68 - S 7 9 4 5 984.0 984.5 -
08/02:00am -14.8 -19.7 -20.8 60 - S 7 9 4 5 983.9 984.4 -
08/01:30am -13.4 -18.1 -19.5 60 - S 6 7 3 4 983.8 984.3 -
08/01:00am -13.9 -19.2 -18.8 66 - S 9 11 5 6 983.6 984.1 -
08/12:30am -14.1 -19.8 -19.8 62 - S 11 11 6 6 983.4 983.9 -
08/12:00am -13.9 -19.6 -19.4 63 - S 11 13 6 7 983.1 983.6 -
 
Date/Time
EST
Temp
°C
App
Temp
°C
Dew
Point
°C
Rel
Hum
%
Delta-T
°C
Wind Press
QNH
hPa
Press
MSL
hPa
Rain since
9am
mm
Dir  Spd
km/h
Gust
km/h
Spd
kts
Gust
kts
07/11:30pm -13.5 -19.5 -18.3 67 - S 13 17 7 9 983.0 983.5 -
07/11:00pm -13.2 -19.2 -18.4 65 - S 13 15 7 8 982.6 983.1 -
07/10:30pm -13.4 -19.4 -18.7 64 - S 13 13 7 7 982.5 983.0 -
07/10:00pm -12.7 -18.7 -18.4 62 - S 13 15 7 8 982.3 982.8 -
07/09:30pm -12.7 -18.3 -19.0 59 - S 11 13 6 7 982.5 983.0 -
07/09:00pm -12.8 -18.8 -19.5 57 - S 13 19 7 10 982.6 983.1 -
07/08:30pm -13.2 -19.6 -19.1 61 - S 15 17 8 9 982.3 982.8 -
07/08:00pm -13.2 -20.4 -19.1 61 - S 19 24 10 13 981.9 982.5 -
07/07:30pm -12.3 -18.0 -20.1 52 - WNW 11 20 6 11 982.3 982.8 -
07/07:00pm -10.2 -16.5 -17.7 54 - SW 15 24 8 13 982.0 982.6 -
07/06:30pm -10.4 -15.7 -18.8 50 - SSW 9 15 5 8 982.4 982.9 -
07/06:00pm -10.1 -16.1 -19.2 47 - SE 13 48 7 26 982.5 983.0 -
07/05:30pm -10.0 -17.7 -19.4 46 - NE 22 39 12 21 982.9 983.4 -
07/05:15pm -10.3 -19.2 -19.2 48 - ESE 28 52 15 28 982.9 983.4 -
07/05:00pm -12.2 -19.0 -19.8 53 - SSE 17 35 9 19 983.2 983.7 -
07/04:30pm -12.4 -19.2 -19.5 55 - S 17 32 9 17 984.3 984.8 -
07/04:00pm -12.3 -19.6 -18.1 62 - S 20 37 11 20 984.7 985.2 -
07/03:31pm -10.7 -19.2 -19.1 50 - ESE 26 57 14 31 984.6 985.1 -
07/03:30pm -10.6 -19.1 -19.0 50 - ESE 26 44 14 24 984.8 985.3 -
07/03:00pm -11.3 -19.0 -17.9 58 - E 22 30 12 16 985.4 985.9 -
07/02:30pm -14.4 -21.8 -19.7 64 - ESE 20 26 11 14 986.0 986.5 -
07/02:00pm -11.9 -21.5 -18.1 60 - ENE 32 37 17 20 986.1 986.6 -
07/01:30pm -11.9 -22.4 -18.1 60 - ENE 37 50 20 27 986.4 986.9 -
07/01:24pm -11.5 -20.3 -17.3 62 - ENE 28 43 15 23 986.7 987.2 -
07/01:00pm -12.1 -16.0 -18.2 60 - NE 2 11 1 6 987.2 987.7 -
07/12:30pm -12.5 -18.5 -18.6 60 - NE 13 19 7 10 987.5 988.0 -
07/12:00pm -12.9 -17.8 -19.0 60 - S 7 9 4 5 987.8 988.3 -
07/11:30am -14.3 -18.3 -20.9 57 - S 2 11 1 6 988.3 988.8 -
07/11:00am -14.2 -20.3 -21.7 53 - SSE 13 20 7 11 988.5 989.0 -
07/10:30am -15.3 -22.2 -21.5 59 - SSE 17 20 9 11 988.9 989.4 -
07/10:00am -15.4 -21.5 -21.8 58 - SSE 13 20 7 11 989.4 989.9 -
07/09:30am -15.7 -22.2 -22.0 58 - SSE 15 17 8 9 989.7 990.2 -
07/09:00am -16.8 -22.9 -21.8 65 - SSE 13 13 7 7 989.6 990.1 -
07/08:30am -16.6 -22.0 -22.3 61 - S 9 13 5 7 989.9 990.4 -
07/08:00am -14.6 -19.4 -21.0 58 - NNE 6 9 3 5 990.0 990.5 -
07/07:30am -14.5 -19.3 -22.1 52 - NNE 6 7 3 4 989.7 990.2 -
07/07:00am -14.7 -19.1 -22.6 51 - NNE 4 9 2 5 989.6 990.1 -
07/06:30am -14.0 -19.4 -22.1 50 - NNE 9 13 5 7 989.5 990.0 -
07/06:00am -15.8 -21.9 -22.3 57 - NE 13 20 7 11 989.8 990.3 -
07/05:30am -16.7 -22.2 -25.3 47 - ENE 9 15 5 8 990.1 990.6 -
07/05:00am -17.6 -24.6 -27.4 42 - E 17 22 9 12 990.0 990.5 -
07/04:30am -15.8 -20.9 -26.3 40 - E 7 9 4 5 990.3 990.8 -
07/04:00am -17.0 -22.1 -26.8 42 - E 7 9 4 5 990.4 990.9 -
07/03:30am -17.0 -23.2 -26.1 45 - E 13 17 7 9 990.2 990.7 -
07/03:00am -17.5 -23.7 -26.3 46 - NE 13 15 7 8 990.0 990.5 -
07/02:30am -17.2 -22.7 -26.5 44 - NE 9 13 5 7 989.5 990.0 -
07/02:00am -16.8 -22.7 -26.9 41 - NE 11 20 6 11 989.4 989.9 -
07/01:30am -17.3 -22.8 -27.6 40 - SSW 9 20 5 11 989.5 990.0 -
07/01:00am -17.1 -22.6 -27.7 39 - SSE 9 17 5 9 989.2 989.7 -
07/12:30am -15.6 -21.5 -28.1 33 - E 11 19 6 10 989.1 989.6 -
07/12:00am -18.7 -24.6 -27.6 45 - E 11 15 6 8 988.9 989.4 -

Other formats

Comma delimited format used in spreadsheet applications
http://www.bom.gov.au/fwo/IDT60803/IDT60803.89611.axf

JavaScript Object Notation format (JSON) in row-major order
http://www.bom.gov.au/fwo/IDT60803/IDT60803.89611.json

Data quality

Most of these data are generated automatically and are frequently updated. Quality checks on data are not normally performed. It is possible for incorrect values to appear. Refer to information at About Latest Weather Observations and please check the disclaimer before using these data.